Weather History for Melbourne, FL

Change the Weather History Date:

Monday, July 8, 2013

  Actual Average Record
Temperature  
Mean Temperature 85 °F 81 °F  
Max Temperature 89 °F 90 °F 97 °F (1998)
Min Temperature 80 °F 72 °F 67 °F (1950)
Degree Days  
Heating Degree Days 0 0  
Month to date heating degree days 0 0  
Since 1 June heating degree days 0 0  
Since 1 July heating degree days 0 0  
Cooling Degree Days 20 16  
Month to date cooling degree days 142 128  
Year to date cooling degree days 1501 1316  
Since 1 June cooling degree days 640 590  
Growing Degree Days 34 (Base 50)    
Moisture  
Dew Point 73 °F    
Average Humidity 72    
Maximum Humidity 85    
Minimum Humidity 59    
Precipitation  
Precipitation 0.00 in 0.19 in 1.97 in (2000)
Month to date precipitation 0.48 1.56  
Year to date precipitation 22.55 21.77  
Sea Level Pressure  
Sea Level Pressure 30.14 in    
Wind  
Wind Speed 9 mph (East)    
Max Wind Speed 15 mph    
Max Gust Speed 20 mph    
Visibility 10 miles    
Events      
T = Trace of Precipitation, MM = Missing Value Source: NWS Daily Summary

Daily Weather History Graph

Daily Weather History Graph

Search for Another Location

Airport:

Trip Planner

Search our weather history database for the weather conditions in past years. The results will help you decide how hot, cold, wet, or windy it might be!

Date:

Astronomy

Jul. 08, 2013 Rise Set
Actual Time 6:32 AM EDT 8:22 PM EDT
Civil Twilight 6:06 AM EDT 8:49 PM EDT
Nautical Twilight 5:34 AM EDT 9:21 PM EDT
Astronomical Twilight 5:00 AM EDT 9:54 PM EDT
Moon 6:53 AM EDT (7/8) 8:33 PM EDT (7/8)
Length of Visible Light 14h 43m
Length of Day
13h 50m
New Moon, 0% of the Moon is Illuminated
Jul 8
New Moon
Jul 15
First Quarter
Jul 22
Full
Jul 29
Last Quarter
Aug 6
New

Hourly Weather History & Observations

Time (EDT) Temp. Heat Index Dew Point Humidity Pressure Visibility Wind Dir Wind Speed Gust Speed Precip Events Conditions
12:53 AM 82.0 °F 87.9 °F 73.9 °F 76% 30.14 in 10.0 mi East 5.8 mph - N/A   Clear
1:53 AM 82.0 °F 88.6 °F 75.0 °F 79% 30.12 in 10.0 mi East 6.9 mph - N/A   Clear
2:53 AM 81.0 °F 86.7 °F 75.0 °F 82% 30.12 in 10.0 mi East 5.8 mph - N/A   Clear
3:53 AM 81.0 °F 86.2 °F 73.9 °F 79% 30.11 in 10.0 mi ESE 5.8 mph - N/A   Clear
4:53 AM 81.0 °F 86.2 °F 73.9 °F 79% 30.12 in 10.0 mi East 4.6 mph - N/A   Clear
5:53 AM 80.1 °F 84.5 °F 73.9 °F 81% 30.12 in 10.0 mi ENE 4.6 mph - N/A   Clear
6:53 AM 80.1 °F 85.1 °F 75.0 °F 85% 30.12 in 10.0 mi East 5.8 mph - N/A   Clear
7:53 AM 82.9 °F 90.2 °F 75.0 °F 77% 30.14 in 10.0 mi East 6.9 mph - N/A   Clear
8:53 AM 84.0 °F 91.2 °F 73.9 °F 72% 30.15 in 10.0 mi East 10.4 mph - N/A   Clear
9:53 AM 84.9 °F 92.1 °F 73.9 °F 69% 30.16 in 10.0 mi East 9.2 mph - N/A   Scattered Clouds
10:53 AM 87.1 °F 95.4 °F 73.9 °F 65% 30.16 in 10.0 mi East 10.4 mph - N/A   Scattered Clouds
11:53 AM 87.1 °F 95.4 °F 73.9 °F 65% 30.17 in 10.0 mi East 10.4 mph - N/A   Clear
12:53 PM 88.0 °F 95.6 °F 73.0 °F 61% 30.17 in 10.0 mi ENE 12.7 mph - N/A   Scattered Clouds
1:53 PM 88.0 °F 95.6 °F 73.0 °F 61% 30.17 in 10.0 mi East 10.4 mph - N/A   Scattered Clouds
2:53 PM 88.0 °F 94.7 °F 72.0 °F 59% 30.16 in 10.0 mi ESE 15.0 mph - N/A   Mostly Cloudy
3:53 PM 88.0 °F 94.7 °F 72.0 °F 59% 30.14 in 10.0 mi East 13.8 mph 18.4 mph N/A   Mostly Cloudy
4:53 PM 88.0 °F 94.7 °F 72.0 °F 59% 30.12 in 10.0 mi East 11.5 mph - N/A   Clear
5:53 PM 86.0 °F 92.2 °F 72.0 °F 63% 30.11 in 10.0 mi East 10.4 mph - N/A   Scattered Clouds
6:53 PM 84.9 °F 90.7 °F 72.0 °F 65% 30.11 in 10.0 mi East 10.4 mph - N/A   Partly Cloudy
7:53 PM 84.0 °F 90.2 °F 73.0 °F 69% 30.12 in 10.0 mi ESE 10.4 mph - N/A   Clear
8:53 PM 82.0 °F 87.9 °F 73.9 °F 76% 30.14 in 10.0 mi East 6.9 mph - N/A   Clear
9:53 PM 82.0 °F 87.4 °F 73.0 °F 74% 30.17 in 10.0 mi East 5.8 mph - N/A   Clear
10:53 PM 82.0 °F 87.4 °F 73.0 °F 74% 30.18 in 10.0 mi ENE 4.6 mph - N/A   Clear
11:53 PM 81.0 °F 85.8 °F 73.0 °F 77% 30.17 in 10.0 mi East 5.8 mph - N/A   Clear